Location: Malvern Link
(52.1333°N, 2.3000°W)
Time: 07:01:21
(UTC+00:00)

AO-92 - Pass Details

Date: 07 July 2022
Orbit: 470 x 481 km, 97.4° (Epoch: 07 August)

Event Time Altitude Azimuth Distance (km) Brightness Sun altitude
Exits shadow 21:44:23 11° 152° (SSE) 1,567 ? -8.5°
Maximum altitude 21:47:41 60° 73° (ENE) 560 ? -8.8°
Drops below altitude 10° 21:51:14 10° 353° (N) 1,677 ? -9.1°
Sets 21:53:20 0° 350° (N) 2,564 ? -9.3°
